Regional Weather Roundup
Issued by NWS

Home | Current Version | Previous Version | Graphics & Text | Print | Product List | Glossary On
Versions: 1 2 3 4 5 6 7 8 9 10 11 12 13 14 15 16 17 18 19 20 21 22 23 24 25 26 27 28 29 30 31 32 33 34 35 36 37 38 39 40 41 42 43 44 45 46 47 48 49 50
000
ASUS43 KBIS 022110
RWRND

NORTH DAKOTA REGIONAL WEATHER ROUNDUP
NATIONAL WEATHER SERVICE BISMARCK ND
400 PM CDT WED SEP 02 2015

NOTE: "FAIR" INDICATES FEW OR NO CLOUDS BELOW 12,000 FEET WITH NO
SIGNIFICANT WEATHER AND/OR OBSTRUCTIONS TO VISIBILITY.


NDZ001>003-009>011-017-022200-
NORTHWEST NORTH DAKOTA

CITY           SKY/WX    TMP DP  RH WIND       PRES   REMARKS
WILLISTON      FAIR      99  42  14 SW13      29.66F HX  94
MINOT          FAIR      95  56  26 SE14      29.69F HX  93
MINOT AFB      FAIR      95  60  31 SE13G20   29.68F HX  95
$$

NDZ018>021-031>035-040>046-022200-
SOUTHWEST NORTH DAKOTA

CITY           SKY/WX    TMP DP  RH WIND       PRES   REMARKS
BISMARCK       FAIR      91  67  44 SE12      29.74F HX  94
DICKINSON      FAIR      97  44  16 S12G21    29.72F HX  93
GARRISON         N/A     93  61  34 S12       29.72F HX  93
HETTINGER ARPT   N/A     94  48  20 S7        29.77F HX  90
$$

NDZ004>008-012>016-024-026-027-054-022200-
NORTHEAST NORTH DAKOTA

CITY           SKY/WX    TMP DP  RH WIND       PRES   REMARKS
GRAND FORKS    FAIR      89  65  44 S17       29.77F HX  91
GRND FRKS AFB  FAIR      88  68  50 S16       29.78F HX  91
DEVILS LAKE    FAIR      88  66  48 SE15      29.76F HX  90
$$

NDZ022-023-025-028>030-036>039-047>053-022200-
SOUTHEAST NORTH DAKOTA

CITY           SKY/WX    TMP DP  RH WIND       PRES   REMARKS
FARGO          FAIR      90  65  43 SE15G22   29.78F HX  92
JAMESTOWN      FAIR      89  68  49 SE15      29.76F HX  93
$$




USA.gov is the U.S. government's official web portal to all federal, state and local government web resources and services.